GW5977 Weather Reports


time (UTC)temp
C
wind
direction
speed
KPH
gust
KPH
rain 1hr
cm
rain 24hr
cm
rain mn
cm
humidity
%
barometer
mb
20260505124829 21 138 6.4 11.3 0.00 0.00 0.00 88 1007.1
20260505124325 21 137 9.7 16.1 0.00 0.00 0.00 88 1007.1
20260505123821 21 118 3.2 9.7 0.00 0.00 0.00 88 1007.0
20260505123318 21 136 3.2 12.9 0.00 0.00 0.00 89 1007.2
20260505122814 21 124 0.0 6.4 0.00 0.00 0.00 89 1007.3
20260505122312 21 116 0.0 9.7 0.00 0.00 0.00 89 1007.1
20260505121808 21 127 1.6 6.4 0.00 0.00 0.00 90 1007.1
20260505121305 21 118 1.6 6.4 0.00 0.00 0.00 89 1007.0
20260505120801 21 111 0.0 9.7 0.00 0.00 0.00 90 1007.0
20260505120258 21 127 6.4 6.4 0.00 0.00 0.00 90 1006.7
20260505115756 21 120 4.8 11.3 0.00 0.00 0.00 90 1006.7
20260505115254 21 138 6.4 9.7 0.00 0.00 0.00 90 1006.7
20260505114751 21 131 1.6 9.7 0.00 0.00 0.00 90 1006.4
20260505114247 21 125 1.6 6.4 0.00 0.00 0.00 90 1006.4
20260505113744 21 135 1.6 6.4 0.00 0.00 0.00 90 1006.4
20260505113241 21 132 4.8 9.7 0.00 0.00 0.00 90 1006.3
20260505112737 21 124 1.6 9.7 0.00 0.00 0.00 90 1006.4
20260505112235 21 135 3.2 3.2 0.00 0.00 0.00 90 1006.6
20260505111734 20 124 6.4 9.7 0.00 0.00 0.00 90 1006.6
20260505111231 20 120 1.6 6.4 0.00 0.00 0.00 90 1006.7
20260505110726 20 132 3.2 9.7 0.00 0.00 0.00 90 1006.6
20260505110224 20 114 6.4 9.7 0.00 0.00 0.00 90 1006.7
20260505102159 20 146 8.0 14.5 0.00 0.00 0.00 89 1006.2
20260505101659 20 146 1.6 6.4 0.00 0.00 0.00 89 1006.3
20260505101154 20 132 3.2 11.3 0.00 0.00 0.00 89 1006.3
20260505100650 20 125 4.8 14.5 0.00 0.00 0.00 89 1006.4
20260505100148 20 133 3.2 11.3 0.00 0.00 0.00 89 1006.3
20260505095643 20 138 3.2 4.8 0.00 0.00 0.00 89 1006.4
20260505095141 20 129 6.4 11.3 0.00 0.00 0.00 89 1006.4
20260505094637 20 153 6.4 12.9 0.00 0.00 0.00 89 1006.4
20260505094133 20 159 6.4 14.5 0.00 0.00 0.00 89 1006.6
20260505093629 20 132 6.4 9.7 0.00 0.00 0.00 89 1006.4
20260505093127 20 142 6.4 11.3 0.00 0.00 0.00 89 1006.5
20260505092624 20 123 1.6 4.8 0.00 0.00 0.00 89 1006.6
20260505092123 20 117 3.2 4.8 0.00 0.00 0.00 89 1006.7
20260505091619 20 120 4.8 11.3 0.00 0.00 0.00 89 1006.8
20260505091117 20 149 4.8 6.4 0.00 0.00 0.00 89 1006.7
20260505090615 20 154 6.4 11.3 0.00 0.00 0.00 89 1006.8
20260505090113 20 155 4.8 11.3 0.00 0.00 0.00 90 1006.9
20260505085610 20 122 0.0 4.8 0.00 0.00 0.00 89 1007.1
20260505085108 20 100 1.6 6.4 0.00 0.00 0.00 89 1007.1
20260505084606 20 113 1.6 4.8 0.00 0.00 0.00 89 1007.1
20260505084104 20 142 1.6 9.7 0.00 0.00 0.00 89 1007.2
20260505083600 20 131 3.2 4.8 0.00 0.00 0.00 89 1007.1
20260505083057 20 136 0.0 12.9 0.00 0.00 0.00 89 1007.3
20260505082553 20 133 3.2 4.8 0.00 0.00 0.00 89 1007.2
20260505082050 20 136 3.2 9.7 0.00 0.00 0.00 89 1007.2
20260505081546 20 124 4.8 6.4 0.00 0.00 0.00 88 1007.5
20260505081044 20 131 1.6 4.8 0.00 0.00 0.00 88 1007.4
20260505080540 20 114 3.2 9.7 0.00 0.00 0.00 88 1007.4
20260505080037 20 136 1.6 12.9 0.00 0.00 0.00 88 1007.6
20260505075532 20 149 3.2 4.8 0.00 0.00 0.00 87 1007.7
20260505075030 20 155 3.2 4.8 0.00 0.00 0.00 87 1007.7
20260505074527 20 138 1.6 3.2 0.00 0.00 0.00 87 1007.7
20260505074024 20 130 3.2 4.8 0.00 0.00 0.00 87 1007.8
20260505073521 20 132 3.2 6.4 0.00 0.00 0.00 87 1007.6
20260505073020 20 142 3.2 6.4 0.00 0.00 0.00 87 1007.7
20260505072515 20 131 3.2 4.8 0.00 0.00 0.00 87 1007.9
20260505072011 20 141 1.6 11.3 0.00 0.00 0.00 87 1007.8
20260505071507 20 116 3.2 6.4 0.00 0.00 0.00 87 1007.9
20260505071005 20 170 1.6 11.3 0.00 0.00 0.00 87 1008.1
20260505070502 20 126 1.6 6.4 0.00 0.00 0.00 87 1008.0
20260505065957 20 127 4.8 6.4 0.00 0.00 0.00 87 1008.1
20260505065454 20 144 3.2 6.4 0.00 0.00 0.00 87 1008.1
20260505064951 20 137 1.6 3.2 0.00 0.00 0.00 87 1008.2
20260505064447 20 125 1.6 6.4 0.00 0.00 0.00 87 1008.2
20260505063946 20 127 1.6 3.2 0.00 0.00 0.00 87 1008.4
20260505063442 20 123 3.2 4.8 0.00 0.00 0.00 87 1008.4
20260505062939 20 134 3.2 4.8 0.00 0.00 0.00 87 1008.5
20260505062436 20 129 1.6 4.8 0.00 0.00 0.00 87 1008.1
20260505061932 20 120 3.2 4.8 0.00 0.00 0.00 87 1008.4
20260505061431 20 131 1.6 3.2 0.00 0.00 0.00 86 1008.6
20260505060928 20 143 6.4 9.7 0.00 0.00 0.00 86 1008.7
20260505060425 20 139 4.8 6.4 0.00 0.00 0.00 86 1008.5
20260505055921 20 123 1.6 3.2 0.00 0.00 0.00 85 1008.5
20260505055417 20 120 1.6 3.2 0.00 0.00 0.00 85 1008.3
20260505054914 20 143 3.2 4.8 0.00 0.00 0.00 85 1008.3
20260505054412 20 172 3.2 9.7 0.00 0.00 0.00 85 1008.2
20260505053910 20 134 3.2 4.8 0.00 0.00 0.00 85 1008.1
20260505053406 20 132 6.4 9.7 0.00 0.00 0.00 85 1008.3
20260505052903 20 124 1.6 4.8 0.00 0.00 0.00 85 1008.2
20260505052400 20 141 1.6 6.4 0.00 0.00 0.00 85 1008.4
20260505051857 20 135 3.2 4.8 0.00 0.00 0.00 85 1008.3
20260505051354 20 145 4.8 6.4 0.00 0.00 0.00 85 1008.4
20260505050852 20 116 1.6 6.4 0.00 0.00 0.00 85 1008.5
20260505050351 20 117 0.0 4.8 0.00 0.00 0.00 84 1008.4
20260505041318 21 162 4.8 6.4 0.00 0.00 0.00 81 1008.5
20260505040815 21 111 1.6 4.8 0.00 0.00 0.00 81 1008.8
20260505040313 21 128 3.2 4.8 0.00 0.00 0.00 80 1008.6
20260505035809 21 128 1.6 6.4 0.00 0.00 0.00 80 1008.6
20260505035305 21 142 1.6 9.7 0.00 0.00 0.00 80 1008.5
20260505034802 21 169 8.0 11.3 0.00 0.00 0.00 80 1008.6
20260505034259 21 118 0.0 1.6 0.00 0.00 0.00 79 1008.6
20260505033755 21 153 3.2 3.2 0.00 0.00 0.00 78 1008.4
20260505033253 21 109 1.6 3.2 0.00 0.00 0.00 78 1008.4
20260505032751 21 108 1.6 11.3 0.00 0.00 0.00 78 1008.8
20260505032247 21 154 1.6 4.8 0.00 0.00 0.00 77 1008.6
20260505031744 21 127 1.6 3.2 0.00 0.00 0.00 77 1008.4
20260505031240 22 145 1.6 6.4 0.00 0.00 0.00 76 1008.5
20260505030738 22 125 3.2 6.4 0.00 0.00 0.00 76 1008.5
20260505030234 22 135 3.2 9.7 0.00 0.00 0.00 75 1008.2
20260505025729 22 120 1.6 6.4 0.00 0.00 0.00 75 1008.1
20260505025228 22 124 1.6 3.2 0.00 0.00 0.00 74 1008.3
20260505024726 22 123 1.6 6.4 0.00 0.00 0.00 74 1008.4
20260505024223 22 126 0.0 3.2 0.00 0.00 0.00 73 1008.4
20260505023720 22 120 4.8 6.4 0.00 0.00 0.00 73 1008.3
20260505023217 22 134 1.6 1.6 0.00 0.00 0.00 73 1008.2
20260505022715 22 107 1.6 6.4 0.00 0.00 0.00 72 1008.4
20260505022211 22 138 1.6 3.2 0.00 0.00 0.00 72 1008.2
20260505021708 22 104 4.8 6.4 0.00 0.00 0.00 71 1008.3
20260505021205 22 128 3.2 4.8 0.00 0.00 0.00 72 1008.2
20260505020701 22 146 1.6 9.7 0.00 0.00 0.00 72 1008.1
20260505020156 22 153 6.4 9.7 0.00 0.00 0.00 72 1008.1
20260505015654 22 143 1.6 6.4 0.00 0.00 0.00 72 1008.1
20260505015150 22 140 1.6 4.8 0.00 0.00 0.00 72 1008.0
20260505014647 22 131 3.2 4.8 0.00 0.00 0.00 73 1008.2
20260505014145 22 118 1.6 4.8 0.00 0.00 0.00 72 1007.9
20260505013642 22 138 1.6 9.7 0.00 0.00 0.00 71 1007.8
20260505013139 22 121 1.6 4.8 0.00 0.00 0.00 72 1008.0
20260505012637 22 145 1.6 3.2 0.00 0.00 0.00 71 1007.9
20260505012134 22 146 3.2 3.2 0.00 0.00 0.00 71 1007.8
20260505011630 23 126 3.2 4.8 0.00 0.00 0.00 70 1007.7
20260505011128 23 143 3.2 6.4 0.00 0.00 0.00 70 1007.8
20260505010627 23 137 0.0 3.2 0.00 0.00 0.00 70 1007.7
20260505010124 23 109 0.0 3.2 0.00 0.00 0.00 70 1007.8
20260505005620 23 138 3.2 4.8 0.00 0.00 0.00 70 1007.7
20260505005118 23 112 3.2 6.4 0.00 0.00 0.00 69 1007.8
20260505004615 23 136 3.2 6.4 0.00 0.00 0.00 69 1007.8
20260505004112 23 155 3.2 6.4 0.00 0.00 0.00 68 1007.7
20260505003609 24 129 3.2 4.8 0.00 0.00 0.00 67 1007.9
20260505003106 24 187 3.2 6.4 0.00 0.00 0.00 66 1007.6
20260505002601 24 147 4.8 11.3 0.00 0.00 0.00 65 1008.1
20260505002100 25 136 3.2 4.8 0.00 0.00 0.00 65 1007.9
20260505001557 25 122 1.6 9.7 0.00 0.00 0.00 64 1008.0
20260505001054 25 114 3.2 4.8 0.00 0.00 0.00 64 1008.0
20260505000552 25 130 1.6 6.4 0.00 0.00 0.00 64 1008.2
20260505000049 25 141 3.2 4.8 0.00 0.00 0.00 63 1008.3
20260504235546 25 157 6.4 9.7 0.00 0.00 0.00 62 1008.4
20260504235043 25 119 3.2 9.7 0.00 0.00 0.00 62 1008.4
20260504234539 25 134 3.2 3.2 0.00 0.00 0.00 62 1008.1
20260504234036 25 120 4.8 12.9 0.00 0.00 0.00 61 1008.4
20260504233532 25 114 1.6 6.4 0.00 0.00 0.00 62 1008.5
20260504233029 25 120 3.2 9.7 0.00 0.00 0.00 63 1008.5
20260504232526 25 117 1.6 4.8 0.00 0.00 0.00 62 1008.3
20260504232024 25 134 4.8 6.4 0.00 0.00 0.00 61 1008.5
20260504231520 25 133 3.2 9.7 0.00 0.00 0.00 60 1008.4
20260504231016 25 108 8.0 14.5 0.00 0.00 0.00 60 1008.4
20260504230513 25 157 6.4 9.7 0.00 0.00 0.00 58 1008.8
20260504230012 26 134 1.6 11.3 0.00 0.00 0.00 58 1008.6
20260504225508 26 127 8.0 11.3 0.00 0.00 0.00 57 1008.6
20260504225005 26 120 1.6 12.9 0.00 0.00 0.00 58 1008.9
20260504224501 26 168 4.8 12.9 0.00 0.00 0.00 57 1008.9
20260504223959 26 180 9.7 16.1 0.00 0.00 0.00 56 1008.9
20260504223455 26 153 4.8 12.9 0.00 0.00 0.00 56 1008.7
20260504222951 26 146 6.4 11.3 0.00 0.00 0.00 55 1008.7
20260504222449 26 130 3.2 11.3 0.00 0.00 0.00 55 1008.6
20260504221946 26 123 4.8 14.5 0.00 0.00 0.00 55 1008.9
20260504221443 26 175 9.7 17.7 0.00 0.00 0.00 54 1009.0
20260504220940 26 181 3.2 9.7 0.00 0.00 0.00 55 1008.9
20260504220436 26 113 4.8 16.1 0.00 0.00 0.00 54 1009.0
20260504215933 26 110 4.8 14.5 0.00 0.00 0.00 54 1009.1
20260504215430 26 151 8.0 11.3 0.00 0.00 0.00 54 1009.3
20260504214927 26 111 6.4 9.7 0.00 0.00 0.00 54 1009.2
20260504214423 26 116 3.2 11.3 0.00 0.00 0.00 54 1009.3
20260504213920 26 128 3.2 6.4 0.00 0.00 0.00 55 1009.5
20260504213416 26 132 1.6 9.7 0.00 0.00 0.00 53 1009.4
20260504212914 27 130 4.8 17.7 0.00 0.00 0.00 51 1009.6
20260504212409 27 93 0.0 9.7 0.00 0.00 0.00 53 1009.5
20260504211907 27 121 11.3 12.9 0.00 0.00 0.00 53 1009.6
20260504211403 27 160 6.4 12.9 0.00 0.00 0.00 52 1009.8
20260504210900 27 39 3.2 11.3 0.00 0.00 0.00 54 1009.8
20260504210357 26 137 3.2 4.8 0.00 0.00 0.00 52 1009.9
20260504205854 26 128 1.6 11.3 0.00 0.00 0.00 52 1010.2
20260504205352 27 149 6.4 6.4 0.00 0.00 0.00 54 1010.5
20260504204850 26 125 4.8 6.4 0.00 0.00 0.00 53 1010.4
20260504204348 27 127 6.4 16.1 0.00 0.00 0.00 51 1010.4
20260504203848 26 121 3.2 11.3 0.00 0.00 0.00 53 1010.4
20260504203344 27 127 1.6 11.3 0.00 0.00 0.00 51 1010.5
20260504202840 26 136 4.8 11.3 0.00 0.00 0.00 53 1010.6
20260504202337 27 104 3.2 14.5 0.00 0.00 0.00 52 1010.8
20260504201833 26 121 1.6 11.3 0.00 0.00 0.00 53 1010.9
20260504201331 26 118 1.6 14.5 0.00 0.00 0.00 52 1010.8
20260504200828 26 138 3.2 6.4 0.00 0.00 0.00 52 1011.0
20260504200325 26 149 4.8 11.3 0.00 0.00 0.00 50 1011.2
20260504195821 26 187 6.4 11.3 0.00 0.00 0.00 52 1011.3
20260504195317 27 131 3.2 12.9 0.00 0.00 0.00 49 1011.5
20260504194814 27 146 3.2 17.7 0.00 0.00 0.00 51 1011.5
20260504194310 27 126 6.4 9.7 0.00 0.00 0.00 49 1011.6
20260504193806 27 130 4.8 11.3 0.00 0.00 0.00 50 1011.6
20260504193304 27 135 3.2 4.8 0.00 0.00 0.00 49 1011.8
20260504192802 27 148 3.2 6.4 0.00 0.00 0.00 51 1011.7
20260504192300 27 152 1.6 6.4 0.00 0.00 0.00 48 1011.8
20260504191758 27 116 3.2 12.9 0.00 0.00 0.00 52 1012.0
20260504191255 26 71 1.6 9.7 0.00 0.00 0.00 52 1011.8
20260504190750 26 175 9.7 14.5 0.00 0.00 0.00 52 1012.0
20260504190247 26 101 6.4 16.1 0.00 0.00 0.00 51 1012.2
20260504185743 26 155 4.8 24.1 0.00 0.00 0.00 51 1012.2
20260504185240 26 136 3.2 12.9 0.00 0.00 0.00 53 1012.3
20260504184737 26 106 6.4 9.7 0.00 0.00 0.00 51 1012.3
20260504184232 26 178 6.4 17.7 0.00 0.00 0.00 49 1012.4
20260504183728 26 157 11.3 16.1 0.00 0.00 0.00 49 1012.2
20260504183226 26 164 8.0 17.7 0.00 0.00 0.00 49 1012.4
20260504182724 26 106 1.6 9.7 0.00 0.00 0.00 52 1012.6
20260504182221 26 114 1.6 11.3 0.00 0.00 0.00 50 1012.8
20260504181718 25 105 1.6 16.1 0.00 0.00 0.00 50 1012.7
20260504181215 26 99 8.0 11.3 0.00 0.00 0.00 52 1012.8
20260504180714 25 122 1.6 14.5 0.00 0.00 0.00 51 1012.9
20260504180213 25 148 8.0 12.9 0.00 0.00 0.00 48 1013.0
20260504175709 25 205 3.2 6.4 0.00 0.00 0.00 50 1012.9
20260504175206 25 122 6.4 17.7 0.00 0.00 0.00 46 1013.1
20260504174704 26 126 3.2 12.9 0.00 0.00 0.00 48 1013.1
20260504174202 25 139 6.4 6.4 0.00 0.00 0.00 47 1013.3
20260504173658 25 115 4.8 9.7 0.00 0.00 0.00 47 1013.2
20260504173155 25 334 3.2 12.9 0.00 0.00 0.00 50 1013.3
20260504172652 25 133 4.8 9.7 0.00 0.00 0.00 49 1013.6
20260504172148 25 121 8.0 11.3 0.00 0.00 0.00 47 1013.8
20260504171644 25 124 3.2 20.9 0.00 0.00 0.00 47 1013.7
20260504171142 25 164 3.2 11.3 0.00 0.00 0.00 49 1013.7
20260504170638 25 194 6.4 9.7 0.00 0.00 0.00 47 1013.9
20260504170136 25 166 4.8 16.1 0.00 0.00 0.00 48 1013.9
20260504151027 21 157 4.8 14.5 0.00 0.00 0.00 60 1014.7
20260504150525 21 123 3.2 16.1 0.00 0.00 0.00 59 1014.8
20260504140950 20 131 3.2 4.8 0.00 0.00 0.00 69 1014.8
20260504140447 19 119 0.0 4.8 0.00 0.00 0.00 70 1014.9